DECAYED

STARLINK-5434, 54849 (Decayed)

Orbit data source: Space-Track

STARLINK-5434, 54849 was a payload satellite owned by SpaceX/Seattle (US) in LEO that was launched on Wed, 28 Dec 2022 UTC via an FALCON 9 launch vehicle from the Air Force Eastern Test Range (AFETR). Payload-class satellites include a variety of spacecraft equipped with specific instruments for various scientific and technological missions. These include communications satellites like Starlink; space stations such as the ISS; scientific satellites like the Hubble; Earth observation satellites from companies like Planet Labs, Umbra, and HawkEye 360; GPS; miniature CubeSats for education and research; and military/defense satellites.

Not visible in the next 10 days
Identifier
54849, 2022-177AF
Orbit
Decayed
Country
Flag of USUS
Related business
Manufacturer
SpaceX/Seattle
Mission
Decayed Commercial Communications
Bus & Motor
STARLINK, Unknown motor
Mass
305 kg wet, ~290 kg dry
Launch date (UTC)
2022-12-28 (3 years ago)
Launch vehicle
FALCON 9
Launch site
Air Force Eastern Test Range (AFETR)
Object type
Payload
Rocket body
Debris
Shape & HBR
Box + 1 Pan, 10.1 m
Radar Cross Section
13.562 m², Large (>1 m²)

Expand to show TLE details & history
Last TLE update: 9 months ago

TLE from 9 months ago
0 STARLINK-5434
1 54849U 22177AF  25277.47840975  .05904559  91699-5  73781-3 0  9991
2 54849  42.9860 206.0879 0003547 227.1758 132.8835 16.35067098154100
Epoch: 2025-10-04T11:28Z
TLE epoch observation values (Epoch: 2025-10-04T11:28:54.602Z)
Latitude
-0.00002°
Longitude
20.45058°
Altitude
180.304 km
Speed
7.799 km/s
True Right ascension
13h 44m 21s
True Declination
0° 00' 00"
Sunlit
Object was in daylight at epoch
Visualization orbit readout
Latitude
Unknown
Longitude
Unknown
Altitude
Unknown
Speed
Unknown
Apparent Right ascension
Unknown
Apparent Declination
Unknown
Sunlit
N/A
Visualization observer readout
Local Sidereal Time
21:35:16
Azimuth
Unknown
Elevation
Unknown
Doppler factor
Unknown
Orbital elements
Apogee altitude
183.322 km
Perigee altitude
178.669 km
Semi-major axis
6,559.132 km
Eccentricity
0.00035
Inclination
42.986°
RAAN
206.0879°
Arg. of periapsis
227.1758°
True anomaly
132.91327°
Mean anomaly
132.8835°
Eccentric anomaly
132.89839°
Mean motion
4.08577 °/min
Orbital period
88.11 mins
BSTAR
0.00073781
Loading maneuver chart data...
Computing Atmospheric mass density...
Loading historical data...
Loading historical data...
Loading historical data...
Loading historical data...
Loading historical data...
Loading historical data...
Loading historical data...

Documentation

Showing up to 5 results
|